Location: Newark
(49.3000°N, 9.4667°E)
Time: 03:59:07
(UTC+00:00)

Tiros 1 - Pass Details

Date: 01 June 2019
Orbit: 631 x 664 km, 48.4° (Epoch: 19 June)

Event Time Altitude Azimuth Distance (km) Brightness Sun altitude
Rises 07:18:06 0° 233° (SW) 2,910 10.2 35.6°
Reaches altitude 10° 07:20:29 10° 228° (SW) 2,006 9.5 36.0°
Maximum altitude 07:24:52 45° 155° (SSE) 863 8.7 36.7°
Drops below altitude 10° 07:29:18 10° 84° (E) 2,023 10.9 37.4°
Sets 07:31:42 0° 78° (ENE) 2,938 11.3 37.8°
